OBJECT B, 61180

Orbit data source: Space-Track

You're viewing an Uncataloged Satellite

Recently launched and/or uncataloged satellites may have evolving metadata. Metadata may include but not limited to: Owner, Maufacturer, Bus, Motor, and Mission.

OBJECT B, 61180 is a satellite owned by MO RF (CIS) in SSO that was launched on Tue, 17 Sep 2024 UTC via an ANGARA-1.2 launch vehicle from the Plesetsk Missile And Space Complex (PKMTR). Unknown objects in Earth's orbit typically refer to objects detected orbiting the Earth but have not yet been identified or cataloged. These objects could be anything from previously untracked satellites, spent rocket stages, debris from satellite collisions, or even natural meteoroids temporarily captured by Earth's gravity.

Loading next visibility...
Identifier
61180, 2024-166B
Orbit
SSO
Country
Flag of CISCIS
Related business
Manufacturer
VNIIEMI?
Mission
Operational Defense Imaging
Bus & Motor
OO-MKA, Unknown motor
Mass
520 kg wet, ~500 kg dry
Launch date (UTC)
2024-09-17 (1 year ago)
Launch vehicle
ANGARA-1.2
Launch site
Plesetsk Missile And Space Complex (PKMTR)
Object type
Unknown
Shape & HBR
Cyl + 2 Pan, 1.5 m
Radar Cross Section
3.727 m², Large (>1 m²)

Expand to show TLE details & history
Last TLE update: 2 days ago

TLE from 2 days ago
0 OBJECT B
1 61180U 24166B   26060.36876618  .00000609  00000-0  47860-5 0  9999
2 61180  96.6939 315.5013 0003628   8.2002 351.9323 15.75431207 83764
Epoch: 2026-03-01T08:51Z
TLE epoch observation values (Epoch: 2026-03-01T08:51:01.397Z)
Latitude
-0.00011°
Longitude
23.56797°
Altitude
344.174 km
Speed
7.704 km/s
True Right ascension
21h 02m 00s
True Declination
0° 00' 00"
Sunlit
Object was in daylight at epoch
Visualization orbit readout
Latitude
Unknown
Longitude
Unknown
Altitude
Unknown
Speed
Unknown
Apparent Right ascension
Unknown
Apparent Declination
Unknown
Sunlit
N/A
Visualization observer readout
Local Sidereal Time
12:00:06
Azimuth
Unknown
Elevation
Unknown
Doppler factor
Unknown
Orbital elements
Apogee altitude
342.704 km
Perigee altitude
337.83 km
Semi-major axis
6,718.404 km
Eccentricity
0.00036
Inclination
96.6939°
RAAN
315.5013°
Arg. of periapsis
8.2002°
True anomaly
351.92646°
Mean anomaly
351.9323°
Eccentric anomaly
351.92938°
Mean motion
3.94134 °/min
Orbital period
91.34 mins
BSTAR
0.000004786
Loading maneuver chart data...
Computing Atmospheric mass density...
Loading historical data...
Loading historical data...
Loading historical data...
Loading historical data...
Loading historical data...
Loading historical data...
Loading historical data...
Other satellites on launch #166 in the year 2024 (2024-09-17 UTC)

Documentation

Showing up to 5 results
|